Location: Heidgraben
(53.7081°N, 9.6576°E)
Time: 08:21:37
(UTC+00:00)

IGS 5A - Pass Details

Date: 05 July 2020
Orbit: 584 x 588 km, 97.6° (Epoch: 09 August)

Event Time Altitude Azimuth Distance (km) Brightness Sun altitude
Exits shadow 20:35:34 - 176° (S) 2,684 6.3 -5.2°
Reaches altitude 10° 20:37:28 10° 180° (S) 1,906 5.6 -5.4°
Maximum altitude 20:41:32 56° 259° (W) 703 4.1 -5.8°
Drops below altitude 10° 20:45:38 10° 339° (NNW) 1,920 7.6 -6.1°
Sets 20:47:51 0° 343° (NNW) 2,825 8.6 -6.3°
